ADR191 LYBE-LJLJ

Flight info

Callsign ADR191
Flight time 0h 43m
Altitude 28000
Route TUVAR DCT MAGAM MAGAM2L
Aircraft A319/M-SDE3FGHIRWY/LB1

Departure

Time 2026-05-01 14:10
Airport Belgrade Nikola Tesla Airport (LYBE)

Arrival

Time 2026-05-01 14:53
Airport Ljubljana Jože Pučnik Airport (LJLJ)
Time Latitude Longitude Altitude Speed Heading
2026-05-01 13:36 44.81894 20.29243 307 ft 0 kts 302°
2026-05-01 13:55 44.81893 20.29245 307 ft 2 kts 302°
2026-05-01 13:55 44.81879 20.29276 307 ft 4 kts 302°
2026-05-01 13:56 44.81867 20.29300 306 ft 4 kts 327°
2026-05-01 13:56 44.81846 20.29305 307 ft 4 kts 30°
2026-05-01 13:56 44.81832 20.29293 305 ft 0 kts 32°
2026-05-01 14:00 44.81834 20.29294 307 ft 1 kts 32°
2026-05-01 14:00 44.81849 20.29308 309 ft 4 kts 32°
2026-05-01 14:01 44.81882 20.29337 307 ft 7 kts 32°
2026-05-01 14:01 44.81933 20.29382 307 ft 10 kts 32°
2026-05-01 14:01 44.82001 20.29441 308 ft 13 kts 31°
2026-05-01 14:01 44.82086 20.29515 307 ft 12 kts 32°
2026-05-01 14:02 44.82105 20.29614 307 ft 14 kts 121°
2026-05-01 14:02 44.82049 20.29741 308 ft 17 kts 122°
2026-05-01 14:02 44.81981 20.29891 307 ft 20 kts 122°
2026-05-01 14:02 44.81904 20.30068 308 ft 22 kts 122°
2026-05-01 14:03 44.81817 20.30265 308 ft 25 kts 122°
2026-05-01 14:03 44.81721 20.30481 307 ft 27 kts 122°
2026-05-01 14:03 44.81613 20.30718 308 ft 30 kts 122°
2026-05-01 14:03 44.81513 20.30946 306 ft 26 kts 122°
2026-05-01 14:04 44.81417 20.31165 306 ft 23 kts 122°
2026-05-01 14:04 44.81328 20.31365 306 ft 25 kts 122°
2026-05-01 14:04 44.81230 20.31587 307 ft 28 kts 122°
2026-05-01 14:04 44.81170 20.31722 308 ft 23 kts 122°
2026-05-01 14:05 44.81047 20.32000 306 ft 27 kts 122°
2026-05-01 14:05 44.80989 20.32150 306 ft 14 kts 102°
2026-05-01 14:05 44.81042 20.32277 305 ft 17 kts 35°
2026-05-01 14:05 44.81133 20.32303 306 ft 7 kts
2026-05-01 14:06 44.81193 20.32305 307 ft 10 kts 357°
2026-05-01 14:06 44.81241 20.32268 309 ft 0 kts 301°
2026-05-01 14:09 44.81242 20.32266 335 ft 1 kts 301°
2026-05-01 14:09 44.81300 20.32135 309 ft 41 kts 302°
2026-05-01 14:09 44.81569 20.31531 307 ft 104 kts 302°
2026-05-01 14:09 44.82057 20.30438 306 ft 158 kts 302°
2026-05-01 14:10 44.82673 20.29047 820 ft 168 kts 304°
2026-05-01 14:10 44.83304 20.27648 1571 ft 171 kts 306°
2026-05-01 14:10 44.83959 20.26174 2131 ft 188 kts 304°
2026-05-01 14:10 44.84709 20.24484 2566 ft 217 kts 305°
2026-05-01 14:11 44.85543 20.22615 3372 ft 230 kts 305°
2026-05-01 14:11 44.87285 20.18714 5394 ft 242 kts 304°
2026-05-01 14:11 44.88186 20.16689 5810 ft 245 kts 305°
2026-05-01 14:12 44.89084 20.14653 5954 ft 245 kts 304°
2026-05-01 14:12 44.89978 20.12616 6029 ft 244 kts 304°
2026-05-01 14:12 44.90873 20.10578 6001 ft 244 kts 304°
2026-05-01 14:12 44.91762 20.08549 5986 ft 243 kts 305°
2026-05-01 14:13 44.92653 20.06515 5985 ft 244 kts 305°
2026-05-01 14:13 44.93243 20.05168 5985 ft 244 kts 305°
2026-05-01 14:13 44.94433 20.02446 5990 ft 243 kts 304°
2026-05-01 14:13 44.95320 20.00414 5984 ft 243 kts 304°
2026-05-01 14:14 44.96208 19.98383 5990 ft 243 kts 304°
2026-05-01 14:14 44.97097 19.96349 5986 ft 244 kts 304°
2026-05-01 14:14 44.97990 19.94309 5989 ft 244 kts 304°
2026-05-01 14:14 44.98878 19.92276 5988 ft 243 kts 304°
2026-05-01 14:15 44.99763 19.90242 5998 ft 244 kts 303°
2026-05-01 14:15 45.00362 19.87857 6332 ft 269 kts 284°
2026-05-01 14:15 45.00763 19.85249 7260 ft 274 kts 285°
2026-05-01 14:15 45.01185 19.82599 8235 ft 279 kts 286°
2026-05-01 14:16 45.01616 19.79899 9231 ft 284 kts 286°
2026-05-01 14:16 45.02051 19.77149 10187 ft 290 kts 287°
2026-05-01 14:16 45.02488 19.74381 11028 ft 295 kts 287°
2026-05-01 14:16 45.02936 19.71527 11899 ft 300 kts 287°
2026-05-01 14:17 45.03390 19.68624 12771 ft 305 kts 287°
2026-05-01 14:17 45.03848 19.65675 13639 ft 310 kts 287°
2026-05-01 14:17 45.04314 19.62681 14444 ft 315 kts 287°
2026-05-01 14:17 45.04786 19.59633 15187 ft 320 kts 288°
2026-05-01 14:18 45.05264 19.56539 15929 ft 324 kts 288°
2026-05-01 14:18 45.05750 19.53399 16674 ft 329 kts 288°
2026-05-01 14:18 45.06247 19.50215 17404 ft 334 kts 289°
2026-05-01 14:18 45.06585 19.48034 17889 ft 338 kts 289°
2026-05-01 14:19 45.07249 19.43683 18820 ft 345 kts 289°
2026-05-01 14:19 45.07754 19.40346 19466 ft 349 kts 289°
2026-05-01 14:19 45.08271 19.36965 20115 ft 354 kts 289°
2026-05-01 14:19 45.08793 19.33543 20759 ft 358 kts 289°
2026-05-01 14:20 45.09318 19.30075 21389 ft 362 kts 290°
2026-05-01 14:20 45.10383 19.23025 22621 ft 371 kts 290°
2026-05-01 14:20 45.10927 19.19433 23228 ft 375 kts 290°
2026-05-01 14:21 45.11472 19.15805 23838 ft 379 kts 290°
2026-05-01 14:21 45.12020 19.12130 24360 ft 383 kts 290°
2026-05-01 14:21 45.12587 19.08428 24870 ft 385 kts 293°
2026-05-01 14:22 45.14432 19.01181 25288 ft 405 kts 300°
2026-05-01 14:22 45.15471 18.97393 25414 ft 420 kts 300°
2026-05-01 14:22 45.16544 18.93465 25561 ft 433 kts 299°
2026-05-01 14:22 45.17627 18.89446 25889 ft 440 kts 299°
2026-05-01 14:23 45.18712 18.85365 26294 ft 444 kts 299°
2026-05-01 14:23 45.19799 18.81243 26719 ft 448 kts 299°
2026-05-01 14:23 45.20896 18.77087 27122 ft 452 kts 298°
2026-05-01 14:23 45.21999 18.72899 27566 ft 455 kts 299°
2026-05-01 14:24 45.23113 18.68684 27988 ft 458 kts 299°
2026-05-01 14:24 45.24236 18.64444 28269 ft 460 kts 299°
2026-05-01 14:24 45.26444 18.56068 28318 ft 448 kts 299°
2026-05-01 14:25 45.28625 18.47793 28325 ft 447 kts 299°
2026-05-01 14:25 45.30796 18.39536 28324 ft 446 kts 298°
2026-05-01 14:26 45.34019 18.27163 28325 ft 445 kts 298°
2026-05-01 14:27 45.36158 18.18905 28318 ft 445 kts 298°
2026-05-01 14:27 45.38284 18.10710 28295 ft 445 kts 298°
2026-05-01 14:28 45.41483 17.98331 28300 ft 444 kts 298°
2026-05-01 14:28 45.43597 17.90070 28303 ft 444 kts 298°
2026-05-01 14:29 45.45709 17.81798 28308 ft 444 kts 298°
2026-05-01 14:30 45.49922 17.65258 28308 ft 444 kts 298°
2026-05-01 14:31 45.53063 17.52831 28313 ft 444 kts 297°
2026-05-01 14:31 45.54798 17.45934 28318 ft 444 kts 297°
2026-05-01 14:32 45.56877 17.37640 28310 ft 443 kts 297°
2026-05-01 14:32 45.58952 17.29351 28320 ft 443 kts 297°
2026-05-01 14:33 45.61017 17.21069 28323 ft 443 kts 297°
2026-05-01 14:33 45.63075 17.12776 28326 ft 443 kts 297°
2026-05-01 14:34 45.65125 17.04476 28292 ft 443 kts 297°
2026-05-01 14:34 45.67167 16.96184 28319 ft 442 kts 297°
2026-05-01 14:35 45.69204 16.87891 28337 ft 442 kts 297°
2026-05-01 14:35 45.71233 16.79597 28341 ft 442 kts 297°
2026-05-01 14:36 45.73255 16.71302 28344 ft 441 kts 297°
2026-05-01 14:36 45.75268 16.63017 28319 ft 440 kts 296°
2026-05-01 14:37 45.77259 16.54792 28330 ft 439 kts 296°
2026-05-01 14:37 45.79263 16.46468 28335 ft 439 kts 296°
2026-05-01 14:38 45.81247 16.38226 28335 ft 446 kts 296°
2026-05-01 14:38 45.83286 16.29746 28334 ft 451 kts 296°
2026-05-01 14:39 45.85311 16.21224 28330 ft 451 kts 295°
2026-05-01 14:39 45.87325 16.12694 28330 ft 451 kts 295°
2026-05-01 14:40 45.89336 16.04158 28331 ft 451 kts 295°
2026-05-01 14:40 45.91346 15.95621 28292 ft 451 kts 295°
2026-05-01 14:41 45.93346 15.87117 27568 ft 450 kts 295°
2026-05-01 14:41 45.94354 15.82822 26303 ft 456 kts 295°
2026-05-01 14:41 45.95361 15.78520 25366 ft 453 kts 294°
2026-05-01 14:41 45.96355 15.74244 24504 ft 449 kts 294°
2026-05-01 14:42 45.97284 15.69974 23609 ft 448 kts 289°
2026-05-01 14:42 45.97857 15.65580 22679 ft 445 kts 285°
2026-05-01 14:42 45.98393 15.61229 21794 ft 439 kts 285°
2026-05-01 14:42 45.98919 15.56942 20951 ft 432 kts 285°
2026-05-01 14:43 45.99438 15.52721 20156 ft 426 kts 285°
2026-05-01 14:43 45.99951 15.48557 19406 ft 419 kts 285°
2026-05-01 14:43 46.00457 15.44458 18696 ft 414 kts 285°
2026-05-01 14:43 46.00954 15.40416 17901 ft 407 kts 285°
2026-05-01 14:44 46.01441 15.36432 16999 ft 402 kts 285°
2026-05-01 14:44 46.02397 15.28589 15292 ft 392 kts 285°
2026-05-01 14:44 46.02861 15.24748 14289 ft 388 kts 285°
2026-05-01 14:45 46.03317 15.20944 13254 ft 382 kts 284°
2026-05-01 14:45 46.04169 15.13707 12453 ft 343 kts 284°
2026-05-01 14:45 46.04554 15.10420 12244 ft 324 kts 284°
2026-05-01 14:46 46.04928 15.07263 11802 ft 317 kts 285°
2026-05-01 14:46 46.05672 15.01090 10718 ft 310 kts 284°
2026-05-01 14:46 46.06038 14.98045 10192 ft 308 kts 284°
2026-05-01 14:47 46.06399 14.95028 9620 ft 304 kts 284°
2026-05-01 14:47 46.06752 14.92047 9099 ft 300 kts 284°
2026-05-01 14:47 46.07098 14.89106 8567 ft 296 kts 284°
2026-05-01 14:48 46.07770 14.83358 7488 ft 289 kts 283°
2026-05-01 14:48 46.08103 14.80518 6969 ft 286 kts 283°
2026-05-01 14:48 46.08942 14.74880 5448 ft 292 kts 287°
2026-05-01 14:49 46.10187 14.69532 4807 ft 262 kts 304°
2026-05-01 14:49 46.12225 14.65493 4245 ft 241 kts 310°
2026-05-01 14:50 46.13851 14.62349 3725 ft 226 kts 309°
2026-05-01 14:50 46.15843 14.58476 3073 ft 189 kts 310°
2026-05-01 14:51 46.16581 14.57038 2842 ft 167 kts 310°
2026-05-01 14:51 46.17824 14.54609 2380 ft 140 kts 311°
2026-05-01 14:52 46.18967 14.52386 2082 ft 137 kts 307°
2026-05-01 14:52 46.19535 14.51285 1870 ft 138 kts 309°
2026-05-01 14:52 46.20660 14.49078 1484 ft 136 kts 306°
2026-05-01 14:53 46.21222 14.47987 1343 ft 137 kts 307°
2026-05-01 14:53 46.21787 14.46907 1227 ft 128 kts 305°
2026-05-01 14:53 46.22234 14.46022 1242 ft 86 kts 307°
2026-05-01 14:53 46.22494 14.45533 1261 ft 38 kts 314°
2026-05-01 14:54 46.22669 14.45368 1263 ft 12 kts 341°
2026-05-01 14:54 46.22751 14.45331 1267 ft 13 kts 348°
2026-05-01 14:54 46.22840 14.45316 1259 ft 10 kts
2026-05-01 14:54 46.22906 14.45381 1263 ft 13 kts 37°
2026-05-01 14:55 46.22961 14.45392 1262 ft 8 kts 308°
2026-05-01 14:55 46.23001 14.45391 1258 ft 8 kts 44°
2026-05-01 14:55 46.23025 14.45417 1258 ft 1 kts 36°
2026-05-01 14:55 46.23027 14.45420 1258 ft 0 kts 36°